Date String (YYYY-MM-DD hh:mm:ss) UTC,Instrument flags,Ambient pressure (hPa),Sample flow (lpm),Bypass flow (lpm),Sample temperature (°C),Ambient temperature (°C),ASC tube jacket temperature (°C),LED temperature (°C),Box temperature (°C),Sample RH (%),Span deviation,Mass concentration (μg/m³),Mass concentration (μg/m³),Mass concentration (μg/m³)
DateTimeUTC,F1_M11,P_M11,Q1_M11,Q2_M11,T1_M11,T2_M11,T3_M11,T4_M11,T5_M11,U1_M11,ZSPAN_M11,X0_M11,X2_M11,X1_M11
2021-09-15 01:00:00,,0827.3,5.00,0.00,29.5,26.4,00.0,38.6,31.0,31.2,-000.3,0022.34,0011.15,0009.70
2021-09-15 01:01:00,,0827.2,5.00,0.00,29.5,26.8,00.0,38.6,31.1,31.1,-000.2,0022.03,0011.16,0009.70
2021-09-15 01:02:00,,0827.2,5.00,0.00,29.5,27.2,00.0,38.6,31.1,31.1,0000.0,0022.51,0011.19,0009.71
2021-09-15 01:03:00,,0827.2,5.01,0.00,29.5,27.5,00.0,38.6,31.3,31.1,0000.0,0022.48,0011.16,0009.71
2021-09-15 01:04:00,,0827.2,4.99,0.00,29.5,27.9,00.0,38.6,31.3,30.9,0000.1,0021.83,0011.12,0009.72
2021-09-15 01:05:00,,0827.2,5.01,0.00,29.5,28.1,00.0,38.6,31.4,30.6,0000.4,0021.48,0011.12,0009.73
2021-09-15 01:06:00,,0827.2,4.98,0.00,29.6,28.3,00.0,38.6,31.4,30.7,0000.2,0022.15,0011.15,0009.76
2021-09-15 01:07:00,,0827.2,5.01,0.00,29.6,28.4,00.0,38.6,31.5,30.7,0000.2,0022.06,0011.11,0009.78
2021-09-15 01:08:00,,0827.2,5.00,0.00,29.7,28.5,00.0,38.6,31.5,30.5,0000.3,0022.26,0011.15,0009.79
2021-09-15 01:09:00,,0827.2,5.01,0.00,29.7,28.6,00.0,38.6,31.6,30.5,0000.1,0022.44,0011.15,0009.80
2021-09-15 01:10:00,,0827.2,4.99,0.00,29.7,28.7,00.0,38.7,31.6,30.5,0000.1,0022.71,0011.20,0009.83
2021-09-15 01:11:00,,0827.2,5.00,0.00,29.8,28.8,00.0,38.7,31.7,30.5,0000.2,0022.32,0011.20,0009.86
2021-09-15 01:12:00,,0827.2,5.00,0.00,29.8,28.5,00.0,38.7,31.6,30.4,0000.2,0022.15,0011.22,0009.89
2021-09-15 01:13:00,,0827.2,5.01,0.00,29.7,26.8,00.0,38.7,31.1,30.6,0000.1,0021.67,0011.19,0009.89
2021-09-15 01:14:00,,0827.3,5.00,0.00,29.6,26.3,00.0,38.7,31.0,30.9,0000.1,0021.99,0011.27,0009.92
2021-09-15 01:15:00,,0827.2,4.99,0.00,29.5,26.6,00.0,38.7,31.0,31.0,0000.0,0023.66,0011.31,0009.92
2021-09-15 01:16:00,,0827.2,5.01,0.00,29.5,27.0,00.0,38.6,31.1,31.1,-000.2,0024.18,0011.30,0009.90
2021-09-15 01:17:00,,0827.2,5.00,0.00,29.5,27.4,00.0,38.6,31.2,31.2,-000.2,0024.33,0011.26,0009.89
2021-09-15 01:18:00,,0827.2,5.00,0.00,29.5,27.7,00.0,38.6,31.3,31.0,-000.1,0024.64,0011.26,0009.87
2021-09-15 01:19:00,,0827.2,5.01,0.00,29.5,28.0,00.0,38.6,31.4,31.0,-000.2,0024.75,0011.24,0009.86
2021-09-15 01:20:00,,0827.2,4.99,0.00,29.6,28.2,00.0,38.6,31.4,31.0,-000.1,0024.86,0011.25,0009.84
2021-09-15 01:21:00,,0827.2,5.01,0.00,29.6,28.3,00.0,38.6,31.5,31.0,-000.0,0026.14,0011.29,0009.85
2021-09-15 01:22:00,,0827.2,5.00,0.00,29.6,28.5,00.0,38.6,31.5,30.8,-000.1,0027.73,0011.33,0009.84
2021-09-15 01:23:00,,0827.2,5.01,0.00,29.7,28.6,00.0,38.6,31.6,30.8,0000.1,0028.84,0011.32,0009.83
2021-09-15 01:24:00,,0827.2,4.99,0.00,29.7,28.7,00.0,38.7,31.6,31.0,-000.0,0029.23,0011.29,0009.80
2021-09-15 01:25:00,,0827.2,5.01,0.00,29.8,28.8,00.0,38.7,31.7,30.7,-000.0,0029.42,0011.26,0009.78
2021-09-15 01:26:00,,0827.2,5.00,0.00,29.8,28.9,00.0,38.7,31.7,30.6,-000.1,0028.55,0011.27,0009.76
2021-09-15 01:27:00,,0827.2,4.98,0.00,29.8,28.9,00.0,38.7,31.7,30.5,-000.1,0028.39,0011.28,0009.76
2021-09-15 01:28:00,,0827.3,5.00,0.00,29.8,27.6,00.0,38.7,31.4,30.6,-000.3,0027.73,0011.30,0009.75
2021-09-15 01:29:00,,0827.2,5.00,0.00,29.7,26.4,00.0,38.7,31.1,30.7,-000.7,0027.56,0011.32,0009.75
2021-09-15 01:30:00,,0827.2,5.00,0.00,29.6,26.4,00.0,38.7,31.1,30.9,-000.5,0027.96,0011.37,0009.77
2021-09-15 01:31:00,,0827.2,5.01,0.00,29.5,26.8,00.0,38.7,31.1,31.0,-000.7,0028.19,0011.39,0009.80
2021-09-15 01:32:00,,0827.2,5.00,0.00,29.5,27.2,00.0,38.7,31.2,31.1,-000.8,0026.88,0011.31,0009.80
2021-09-15 01:33:00,,0827.2,4.99,0.00,29.5,27.5,00.0,38.6,31.3,31.1,-000.6,0026.18,0011.31,0009.79
2021-09-15 01:34:00,,0827.2,5.00,0.00,29.5,27.8,00.0,38.6,31.3,31.1,-000.6,0025.14,0011.33,0009.79
2021-09-15 01:35:00,,0827.2,5.00,0.00,29.6,28.0,00.0,38.6,31.4,31.3,-000.6,0025.35,0011.31,0009.81
2021-09-15 01:36:00,,0827.3,5.00,0.00,29.6,28.2,00.0,38.6,31.4,31.2,-000.6,0024.26,0011.29,0009.81
2021-09-15 01:37:00,,0827.3,5.01,0.00,29.6,28.3,00.0,38.7,31.5,31.3,-000.7,0023.60,0011.26,0009.82
2021-09-15 01:38:00,,0827.3,5.00,0.00,29.7,28.5,00.0,38.7,31.5,31.5,-000.5,0024.39,0011.23,0009.78
2021-09-15 01:39:00,,0827.4,4.99,0.00,29.7,28.6,00.0,38.7,31.5,31.1,-000.0,0025.24,0011.22,0009.77
2021-09-15 01:40:00,,0827.4,5.00,0.00,29.7,28.7,00.0,38.7,31.6,30.9,0000.3,0025.81,0011.26,0009.77
2021-09-15 01:41:00,,0827.4,5.00,0.00,29.7,28.7,00.0,38.7,31.6,30.8,0000.2,0026.19,0011.25,0009.77
2021-09-15 01:42:00,,0827.4,5.00,0.00,29.8,28.8,00.0,38.7,31.6,31.2,0000.5,0025.84,0011.22,0009.74
2021-09-15 01:43:00,,0827.4,5.00,0.00,29.8,28.8,00.0,38.7,31.6,31.5,0000.8,0025.38,0011.22,0009.69
2021-09-15 01:44:00,,0827.4,4.99,0.00,29.8,27.5,00.0,38.7,31.3,31.7,0000.7,0024.37,0011.13,0009.59
2021-09-15 01:45:00,,0827.4,5.00,0.00,29.6,26.3,00.0,38.7,31.0,32.0,0000.8,0024.27,0011.07,0009.50
2021-09-15 01:46:00,,0827.4,5.00,0.00,29.5,26.2,00.0,38.7,30.9,32.2,0001.0,0023.14,0011.08,0009.41
2021-09-15 01:47:00,,0827.4,5.00,0.00,29.4,26.6,00.0,38.7,31.0,32.2,0001.1,0022.87,0011.05,0009.36
2021-09-15 01:48:00,,0827.4,5.00,0.00,29.4,27.1,00.0,38.6,31.1,32.1,0001.2,0023.25,0010.98,0009.28
2021-09-15 01:49:00,,0827.4,4.99,0.00,29.4,27.4,00.0,38.6,31.2,32.1,0001.0,0022.52,0010.91,0009.24
2021-09-15 01:50:00,,0827.4,5.00,0.00,29.5,27.7,00.0,38.6,31.2,32.3,0000.9,0021.41,0010.77,0009.16
2021-09-15 01:51:00,,0827.4,5.01,0.00,29.5,27.9,00.0,38.6,31.3,32.3,0000.8,0020.35,0010.59,0009.05
2021-09-15 01:52:00,,0827.4,4.99,0.00,29.5,28.1,00.0,38.6,31.3,32.3,0000.9,0019.89,0010.49,0008.95
2021-09-15 01:53:00,,0827.4,4.99,0.00,29.5,28.2,00.0,38.6,31.4,32.3,0001.0,0019.34,0010.36,0008.83
2021-09-15 01:54:00,,0827.4,5.01,0.00,29.6,28.4,00.0,38.6,31.4,32.3,0000.9,0019.38,0010.25,0008.76
2021-09-15 01:55:00,,0827.4,5.00,0.00,29.6,28.5,00.0,38.6,31.4,32.3,0000.7,0020.78,0010.23,0008.73
2021-09-15 01:56:00,,0827.4,5.01,0.00,29.6,28.5,00.0,38.6,31.5,32.1,0000.5,0020.99,0010.23,0008.69
2021-09-15 01:57:00,,0827.4,4.99,0.00,29.7,28.6,00.0,38.7,31.5,31.8,-000.0,0021.27,0010.11,0008.65
2021-09-15 01:58:00,,0827.4,5.00,0.00,29.7,28.7,00.0,38.7,31.5,31.3,0000.1,0021.95,0010.04,0008.56
2021-09-15 01:59:00,,0827.4,4.99,0.00,29.7,28.7,00.0,38.7,31.5,31.4,0000.0,0021.83,0009.99,0008.50
